Regional Weather Roundup
Issued by NWS

Home | Current Version | Previous Version | Text Only | Print | Product List | Glossary On
Versions: 1 2 3 4 5 6 7 8 9 10 11 12 13 14 15 16 17 18 19 20 21 22 23 24 25 26 27 28 29 30 31 32 33 34 35 36 37 38 39 40 41 42 43 44 45 46 47 48 49 50
000
ASHW40 PHFO 221312
RWRHI

WEATHER ROUNDUP FOR HAWAII
NATIONAL WEATHER SERVICE HONOLULU HI
300 AM HST WED FEB 22 2017

THIS IS AN AUTOMATED REPORT THAT HAS NOT BEEN QUALITY CONTROLLED.

NOTE..."FAIR" INDICATES FEW OR NO CLOUDS BELOW 12,000 FEET WITH NO
SIGNIFICANT WEATHER AND/OR OBSTRUCTIONS TO VISIBILITY.

* - THESE SITES REPORT LIMITED FIELDS

HIZ001>004-221400-
KAUAI-NIIHAU-

CITY           SKY/WX    TMP DP  RH WIND       PRES   REMARKS
LIHUE APT      CLOUDY    70  61  73 NE22G32   30.24F
PORT ALLEN*      N/A     68 N/A N/A NE12G17     N/A
POIPU*           N/A     68 N/A N/A NE12G23     N/A
PRINCEVILLE*     N/A     70 N/A N/A E10G17      N/A
KOKOLE POINT*  NOT AVBL
MOLOAA DAIRY*    N/A     70  59  68 E5G17       N/A
WAIMEA HTS*    NOT AVBL
PUU OPAE*      NOT AVBL
PUU LUA*       NOT AVBL
MAKAHA RIDGE*  NOT AVBL
$$

HIZ005>011-221400-
OAHU-

CITY           SKY/WX    TMP DP  RH WIND       PRES   REMARKS
HONOLULU       PTCLDY    71  57  61 E15       30.20F
KALAELOA       PTCLDY    68  57  68 NE3       30.21F
KANEOHE MCB    NOT AVBL
WHEELER FIELD  PTCLDY    65  57  76 NW5       30.21F
BELLOWS*       NOT AVBL
KAHUKU*        NOT AVBL
WHEELER*       NOT AVBL
WAIANAE HARBOR NOT AVBL
DILLINGHAM*    NOT AVBL
KAHUKU TRN*      N/A     70  59  68 W10G22      N/A
KAWAILOA*        N/A     64  57  77 NE16G29     N/A
KII*             N/A     72  61  68 E20G26      N/A
MAKUA RANGE*     N/A     72  59  64 W13G26      N/A
OAHU FOREST NW NOT AVBL
SCHOFIELD BRK* NOT AVBL
SCHOFIELD S*   NOT AVBL
WAIANAE VLY*   NOT AVBL
KUAOKALA*      NOT AVBL
HONOULIUULI*   NOT AVBL
MOKUOLOE IS*   NOT AVBL
PALEHUA*       NOT AVBL
WAIAWA PHB*    NOT AVBL
$$

HIZ012>013-221400-
MOLOKAI-

CITY           SKY/WX    TMP DP  RH WIND       PRES   REMARKS
MOLOKAI AIRPT  CLEAR     71  60  68 NE18G31   30.20F
KALAUPAPA      NOT AVBL
MAKAPULAPAI*   NOT AVBL
MOLOKAI 1*     NOT AVBL
PUU ALII*      NOT AVBL
$$

HIZ016-221400-
KAHOOLAWE-

CITY           SKY/WX    TMP DP  RH WIND       PRES   REMARKS
KAHOOLAWE*     NOT AVBL
HAKIOAWA*      NOT AVBL
HONOKANAIA*      N/A     70  56  61 VRB6G22   30.13F
KANELOA*         N/A     68  57  68 E9G26     30.24F
KEALIALALO*    NOT AVBL
LUA MAKIKA*    NOT AVBL
$$

HIZ014>015-221400-
LANAI-

CITY           SKY/WX    TMP DP  RH WIND       PRES   REMARKS
LANAI CITY       N/A     64  58  80 NE20G26   30.21F
LANAI 1*       NOT AVBL
$$

HIZ017>028-221400-
MAUI-

CITY           SKY/WX    TMP DP  RH WIND       PRES   REMARKS
KAHULUI        PTCLDY    70  61  73 NE10G23   30.20F
KAPALUA-W MAUI NOT AVBL
HANA AIRPORT   MOCLDY    72  61  68 NE16      30.25S
HANA*            N/A     72 N/A N/A NE14G21     N/A
HALEAKALA SUMM   N/A     34  18  51 E8          N/A  WCI  27
MAALAEA BAY*   NOT AVBL
HALEAKALA*     NOT AVBL
KAUPO GAP*     NOT AVBL
KULA 1*          N/A    N/A N/A N/A SE3         N/A
$$

HIZ023>026-221400-
BIG ISLAND OF HAWAII COAST AND LOWER SLOPES-

CITY           SKY/WX    TMP DP  RH WIND       PRES   REMARKS
KAILUA KONA    MOCLDY    70  61  73 NE7       30.12F
HILO           MOCLDY    72  59  63 NE8       30.21F
HONOKAA*         N/A     63 N/A N/A VRB1        N/A
KAWAIHAE MWT*    N/A     72 N/A N/A NE3         N/A
KAWAIHAE*      NOT AVBL
SOUTH POINT*     N/A     66 N/A N/A N22G35      N/A
UPOLU AIRPORT* NOT AVBL
KAMUELA*       CLOUDY    57  54  88 NE22      30.23S
HAKALAU*         N/A     43  43 100 NW2G12      N/A
KALOKO-HONOKO* NOT AVBL
PALI 2*        NOT AVBL
KEALAKOMO*       N/A     70  59  68 N15G24      N/A
KAUPULEHU*     NOT AVBL
KAPAPALA*      NOT AVBL
LOWER KAHUKU*  NOT AVBL
PUHE CS*       NOT AVBL
PUHO CS*       NOT AVBL
PTA KEAMUKU*     N/A     54  50  87 CALM        N/A
WAIKOLOA*      NOT AVBL
$$

HIZ027>028-221400-
BIG ISLAND OF HAWAII INTERIOR AND SUMMMITS-

CITY           SKY/WX    TMP DP  RH WIND       PRES   REMARKS
BRADSHAW FIELD CLEAR     43  35  74 SE7       30.39F
MK VISITOR CEN   N/A     39  12  33 NE6         N/A
MAUNA KEA*       N/A     19   1  45 CALM        N/A
MAUNA LOA*       N/A    N/A N/A N/A MISG        N/A
MAUNA LOA 1*   NOT AVBL
PTA KIPUKA*      N/A     45  41  87 S6G12       N/A
PTA RANGE 17*    N/A     66  59  77 E10G26      N/A
PTA WEST*        N/A     68  59  73 SE10G18     N/A
NENE CABIN*    NOT AVBL
AHUMOA*        NOT AVBL
PTA PORTABLE*  NOT AVBL
PUU MALI*        N/A    N/A N/A N/A SE10G31     N/A
$$

HIC003-221400-
NORTHWEST ISLANDS-

CITY           SKY/WX    TMP DP  RH WIND       PRES   REMARKS
MIDWAY ISLAND  MOCLDY    72  68  88 SE16      30.16F
MIDWAY NOS*    NOT AVBL
FRENCH FRIGATE NOT AVBL
$$

PHZ110>124-180-221400-
BUOY REPORTS

STATION/POSITION TIME  TEMP    WIND        PRES    WAVE   SWELL
                       AIR SEA DIR/SP/G            HT/PER HT/DIR
                 (UTC) (F)     (DEG/KT/KT) (MB)    (FT/S) (FT/D)
BUOY 51001       1240   70 72   70/ 14/ 17 1026.3F
BUOY 51101       1150   71 72   70/ 16/ 21 1027.2    7/ 7   3/ 40
BUOY 51100       NOT AVBL
BUOY 51002       1240   76 77   50/ 25/ 29 1018.5F
BUOY 51003       1150   75 77   60/ 19/ 23 1020.8    8/ 8   3/250
BUOY 51004       1150      77   40/ 25/ 29 1018.7   10/ 8   3
BARBERS PT BUOY  NOT AVBL
WAIMEA BAY BUOY  1202      74                N/A     7/10   2/360
KAILUA BAY BUOY  1234      75                N/A     8/ 7   2
LANAI BUOY       1245      76                N/A     3/11   2/270
BARBERS PT 2     NOT AVBL
PAUWELA MAUI     1239      75                N/A     8/11   2/350
HILO             1242      76                N/A     9/ 7   2/ 10
KANEOHE BAY BUOY 1236      75                N/A     7/ 7   2/350
HANALEI KAUAI    1252      76                N/A     8/ 8   2/360
KAHULUI HARBOR   1242   71 74   60/  8/ 12 1022.8F
HONOLULU HARBOR  1242   72 75   60/  5/ 12 1023.3F
KILO NALU        NOT AVBL
HILO HARBOR      1242   73 75   50/ 11/ 14 1022.6F
MOKUOLOE         1236   73 73   80/ 15/ 19 1023.3F
NAWILIWILI       1242   70 75   40/ 10/ 17 1023.8F
WHOTS BUOY       NOT AVBL
BUOY 51028       NOT AVBL
$$

......................KEY........................................
  SKY/WX - SKY CONDITIONS/PRESENT WEATHER
  TMP    - TEMPERATURE IN FAHRENHEIT
  DWPT   - DEWPOINT IN FAHRENHEIT
  RH     - RELATIVE HUMIDITY IN PERCENT
  WIND   - DIRECTION AND SPEED /MPH FOR ISLANDS...KTS FOR BUOYS/
  PRES   - MEAN SEA LEVEL PRESSURE IN INCHES OF HG
  VSB    - VISIBILITY IN MILES
  HX     - HEAT INDEX
  WCI    - WIND CHILL INDEX
  VRB    - VARIABLE WIND DIRECTION
  N/A    - NOT AVAILABLE



USA.gov is the U.S. government's official web portal to all federal, state and local government web resources and services.